TimeEDT,TemperatureF,Dew PointF,Humidity,Sea Level PressureIn,VisibilityMPH,Wind Direction,Wind SpeedMPH,Gust SpeedMPH,PrecipitationIn,Events,Conditions,WindDirDegrees,DateUTC
12:15 AM,57.2,-9999,N/A,30.05,0.2,Calm,Calm,-,N/A,Fog,Fog,0,2013-05-17 04:15:00
12:35 AM,57.2,-9999,N/A,30.05,0.5,Calm,Calm,-,N/A,Fog,Fog,0,2013-05-17 04:35:00
12:55 AM,57.2,-9999,N/A,30.05,0.2,Calm,Calm,-,N/A,Fog,Fog,0,2013-05-17 04:55:00
1:15 AM,57.2,-9999,N/A,30.06,5.0,Calm,Calm,-,N/A,,Haze,0,2013-05-17 05:15:00
1:35 AM,57.2,-9999,N/A,30.05,8.0,Calm,Calm,-,N/A,,Mostly Cloudy,0,2013-05-17 05:35:00
1:55 AM,57.2,-9999,N/A,30.05,1.5,Calm,Calm,-,N/A,,Mostly Cloudy,0,2013-05-17 05:55:00
2:15 AM,57.2,-9999,N/A,30.06,0.5,Calm,Calm,-,N/A,Fog,Fog,0,2013-05-17 06:15:00
2:35 AM,57.2,-9999,N/A,30.06,0.2,Calm,Calm,-,N/A,Fog,Fog,0,2013-05-17 06:35:00
2:55 AM,55.4,-9999,N/A,30.06,0.5,Calm,Calm,-,N/A,Fog,Fog,0,2013-05-17 06:55:00
3:15 AM,55.4,-9999,N/A,30.06,0.2,Calm,Calm,-,N/A,Fog,Fog,0,2013-05-17 07:15:00
3:35 AM,57.2,-9999,N/A,30.07,4.0,Calm,Calm,-,N/A,,Haze,0,2013-05-17 07:35:00
3:55 AM,57.2,-9999,N/A,30.07,5.0,Calm,Calm,-,N/A,,Haze,0,2013-05-17 07:55:00
4:15 AM,57.2,-9999,N/A,30.08,1.2,Calm,Calm,-,N/A,,Overcast,0,2013-05-17 08:15:00
4:35 AM,57.2,-9999,N/A,30.08,5.0,Calm,Calm,-,N/A,,Haze,0,2013-05-17 08:35:00
4:55 AM,57.2,-9999,N/A,30.08,6.0,Calm,Calm,-,N/A,,Haze,0,2013-05-17 08:55:00
5:15 AM,57.2,-9999,N/A,30.09,5.0,Calm,Calm,-,N/A,,Haze,0,2013-05-17 09:15:00
5:35 AM,57.2,-9999,N/A,30.10,0.8,Calm,Calm,-,N/A,,Overcast,0,2013-05-17 09:35:00
5:55 AM,57.2,-9999,N/A,30.10,5.0,Calm,Calm,-,N/A,,Haze,0,2013-05-17 09:55:00
6:15 AM,57.2,-9999,N/A,30.11,5.0,Calm,Calm,-,N/A,,Haze,0,2013-05-17 10:15:00
6:35 AM,57.2,-9999,N/A,30.12,6.0,Calm,Calm,-,N/A,,Haze,0,2013-05-17 10:35:00
6:55 AM,57.2,-9999,N/A,30.12,5.0,Calm,Calm,-,N/A,,Haze,0,2013-05-17 10:55:00
7:15 AM,57.2,-9999,N/A,30.13,5.0,Calm,Calm,-,N/A,,Haze,0,2013-05-17 11:15:00
7:35 AM,59.0,-9999,N/A,30.13,5.0,Calm,Calm,-,N/A,,Haze,0,2013-05-17 11:35:00
8:15 AM,62.6,62.6,100,30.14,7.0,Calm,Calm,-,N/A,,Mostly Cloudy,0,2013-05-17 12:15:00
8:35 AM,64.4,62.6,94,30.14,10.0,Calm,Calm,-,N/A,,Partly Cloudy,0,2013-05-17 12:35:00
8:55 AM,64.4,60.8,88,30.15,10.0,Calm,Calm,-,N/A,,Partly Cloudy,0,2013-05-17 12:55:00
9:15 AM,64.4,60.8,88,30.15,10.0,Calm,Calm,-,N/A,,Scattered Clouds,0,2013-05-17 13:15:00
9:35 AM,66.2,59.0,78,30.15,10.0,Calm,Calm,-,N/A,,Clear,0,2013-05-17 13:35:00
9:55 AM,66.2,59.0,78,30.15,10.0,Calm,Calm,-,N/A,,Scattered Clouds,0,2013-05-17 13:55:00
10:15 AM,66.2,60.8,83,30.15,10.0,Calm,Calm,-,N/A,,Scattered Clouds,0,2013-05-17 14:15:00
10:35 AM,69.8,60.8,73,30.15,10.0,Calm,Calm,-,N/A,,Partly Cloudy,0,2013-05-17 14:35:00
10:55 AM,69.8,59.0,68,30.15,10.0,Calm,Calm,-,N/A,,Clear,0,2013-05-17 14:55:00
11:15 AM,69.8,59.0,68,30.14,10.0,Calm,Calm,-,N/A,,Clear,0,2013-05-17 15:15:00
11:35 AM,71.6,57.2,60,30.14,10.0,Calm,Calm,-,N/A,,Clear,0,2013-05-17 15:35:00
11:55 AM,71.6,57.2,60,30.14,9.0,Calm,Calm,-,N/A,,Clear,0,2013-05-17 15:55:00
12:15 PM,73.4,57.2,57,30.13,10.0,Calm,Calm,-,N/A,,Clear,0,2013-05-17 16:15:00
12:35 PM,73.4,55.4,53,30.13,10.0,Calm,Calm,-,N/A,,Clear,0,2013-05-17 16:35:00
12:55 PM,73.4,55.4,53,30.12,10.0,Calm,Calm,-,N/A,,Clear,0,2013-05-17 16:55:00
1:15 PM,75.2,57.2,53,30.12,10.0,Calm,Calm,-,N/A,,Clear,0,2013-05-17 17:15:00
1:35 PM,75.2,57.2,53,30.12,10.0,Calm,Calm,-,N/A,,Clear,0,2013-05-17 17:35:00
1:55 PM,75.2,57.2,53,30.12,10.0,SW,6.9,-,N/A,,Partly Cloudy,220,2013-05-17 17:55:00
2:15 PM,75.2,55.4,50,30.12,10.0,Calm,Calm,-,N/A,,Partly Cloudy,0,2013-05-17 18:15:00
2:35 PM,77.0,55.4,47,30.11,10.0,NW,4.6,-,N/A,,Clear,310,2013-05-17 18:35:00
3:15 PM,77.0,53.6,44,30.11,10.0,Calm,Calm,-,N/A,,Clear,0,2013-05-17 19:15:00
3:35 PM,78.8,55.4,44,30.10,10.0,Calm,Calm,-,N/A,,Clear,0,2013-05-17 19:35:00
3:55 PM,75.2,57.2,53,30.10,10.0,SW,8.1,-,N/A,,Clear,230,2013-05-17 19:55:00
4:15 PM,75.2,55.4,50,30.09,10.0,Calm,Calm,-,N/A,,Partly Cloudy,0,2013-05-17 20:15:00
4:35 PM,75.2,57.2,53,30.09,10.0,Calm,Calm,-,N/A,,Clear,0,2013-05-17 20:35:00
4:55 PM,75.2,57.2,53,30.09,10.0,Calm,Calm,-,N/A,,Partly Cloudy,0,2013-05-17 20:55:00
5:15 PM,75.2,57.2,53,30.09,10.0,Calm,Calm,-,N/A,,Clear,0,2013-05-17 21:15:00
5:35 PM,75.2,57.2,53,30.09,10.0,Calm,Calm,-,N/A,,Clear,0,2013-05-17 21:35:00
5:55 PM,77.0,57.2,50,30.09,10.0,Calm,Calm,-,N/A,,Clear,0,2013-05-17 21:55:00
6:15 PM,75.2,57.2,53,30.09,10.0,Calm,Calm,-,N/A,,Clear,0,2013-05-17 22:15:00
6:35 PM,77.0,57.2,50,30.09,10.0,Calm,Calm,-,N/A,,Partly Cloudy,0,2013-05-17 22:35:00
6:55 PM,75.2,57.2,53,30.09,10.0,Calm,Calm,-,N/A,,Scattered Clouds,0,2013-05-17 22:55:00
7:15 PM,75.2,59.0,57,30.09,10.0,Calm,Calm,-,N/A,,Partly Cloudy,0,2013-05-17 23:15:00
7:35 PM,75.2,57.2,53,30.10,10.0,Calm,Calm,-,N/A,,Partly Cloudy,0,2013-05-17 23:35:00
7:55 PM,75.2,57.2,53,30.11,10.0,Calm,Calm,-,N/A,,Clear,0,2013-05-17 23:55:00
8:15 PM,73.4,55.4,53,30.11,10.0,Calm,Calm,-,N/A,,Partly Cloudy,0,2013-05-18 00:15:00
8:35 PM,71.6,55.4,57,30.12,10.0,Calm,Calm,-,N/A,,Partly Cloudy,0,2013-05-18 00:35:00
8:55 PM,71.6,55.4,57,30.12,10.0,Calm,Calm,-,N/A,,Partly Cloudy,0,2013-05-18 00:55:00
9:15 PM,71.6,55.4,57,30.13,10.0,Calm,Calm,-,N/A,,Scattered Clouds,0,2013-05-18 01:15:00
9:35 PM,69.8,57.2,64,30.13,10.0,Calm,Calm,-,N/A,,Scattered Clouds,0,2013-05-18 01:35:00
9:55 PM,69.8,55.4,60,30.13,10.0,Calm,Calm,-,N/A,,Clear,0,2013-05-18 01:55:00
10:15 PM,69.8,55.4,60,30.13,10.0,Calm,Calm,-,N/A,,Clear,0,2013-05-18 02:15:00
10:35 PM,68.0,57.2,68,30.14,10.0,Calm,Calm,-,N/A,,Clear,0,2013-05-18 02:35:00
10:55 PM,64.4,59.0,83,30.14,10.0,Calm,Calm,-,N/A,,Clear,0,2013-05-18 02:55:00
11:15 PM,66.2,57.2,73,30.14,10.0,Calm,Calm,-,N/A,,Clear,0,2013-05-18 03:15:00
11:35 PM,66.2,57.2,73,30.14,10.0,Calm,Calm,-,N/A,,Clear,0,2013-05-18 03:35:00
11:55 PM,64.4,57.2,77,30.14,10.0,Calm,Calm,-,N/A,,Clear,0,2013-05-18 03:55:00